FW6663 Weather Reports


time (UTC)temp
F
wind
direction
speed
knots
gust
knots
rain 1hr
in
rain 24hr
in
rain mn
in
humidity
%
barometer
mb
20260510063030 52 0.0 0.0 0.00 0.00 0.00 86 1014.3
20260510061533 51 0.0 0.0 0.00 0.00 0.00 86 1014.4
20260510060033 51 202 0.0 0.9 0.00 0.00 0.00 86 1014.4
20260510054531 50 68 1.7 0.0 0.00 0.00 0.00 86 1014.2
20260510053041 50 0.0 0.0 0.00 0.00 0.00 87 1014.3
20260510051545 49 0.0 0.0 0.00 0.00 0.00 87 1014.2
20260510050032 49 0.0 0.0 0.00 0.00 0.00 87 1014.3
20260510044531 49 0.0 0.0 0.00 0.00 0.00 87 1014.2
20260510043032 48 0.0 0.0 0.00 0.00 0.00 87 1014.3
20260510041531 48 0.0 0.0 0.00 0.00 0.00 87 1014.2
20260510040038 48 0.0 0.0 0.00 0.00 0.00 87 1014.2
20260510034530 48 0.0 0.0 0.00 0.00 0.00 87 1014.2
20260510033028 48 0 0.0 0.0 0.00 0.00 0.00 88 1014.1
20260510031532 48 0 0.0 0.0 0.00 0.00 0.00 88 1014.3
20260510030031 48 0 0.0 0.0 0.00 0.00 0.00 89 1014.6
20260510024532 48 0 0.0 0.0 0.00 0.00 0.00 89 1014.6
20260510023030 48 0.0 0.0 0.00 0.00 0.00 89 1014.5
20260510021532 48 0 0.0 0.0 0.00 0.00 0.00 89 1014.6
20260510020032 48 0 0.0 0.9 0.00 0.00 0.00 90 1014.5
20260510014529 48 0 0.0 0.0 0.00 0.00 0.00 90 1014.6
20260510013033 48 0.0 0.0 0.00 0.00 0.00 90 1014.7
20260510011532 48 0.0 0.0 0.00 0.00 0.00 90 1015.0
20260510010029 48 0.0 0.0 0.00 0.00 0.00 89 1015.0
20260510004529 49 0.0 0.0 0.00 0.00 0.00 88 1015.1
20260510003029 49 0.0 0.0 0.00 0.00 0.00 88 1015.4
20260510001529 50 0.0 0.0 0.00 0.00 0.00 87 1015.3
20260510000032 50 0.0 0.0 0.00 0.00 0.00 87 1015.4
20260509234531 50 0.0 0.0 0.00 0.00 0.00 87 1015.4
20260509233028 50 0.0 0.0 0.00 0.00 0.00 86 1015.5
20260509231530 51 0.0 0.0 0.00 0.00 0.00 86 1015.6
20260509230028 51 0 0.0 0.0 0.00 0.00 0.00 85 1015.6
20260509224528 52 0.0 0.0 0.00 0.00 0.00 84 1015.7
20260509223030 52 0.0 0.0 0.00 0.00 0.00 82 1015.6
20260509221529 52 0.0 0.0 0.00 0.00 0.00 80 1015.7
20260509220040 53 0 0.0 0.0 0.00 0.00 0.00 80 1015.7
20260509214533 53 0 0.0 0.0 0.00 0.00 0.00 78 1015.8
20260509213028 54 0.0 0.0 0.00 0.00 0.00 80 1015.6
20260509211528 54 0 0.0 0.0 0.00 0.00 0.00 78 1015.7
20260509210032 55 0.0 0.0 0.00 0.00 0.00 77 1015.7
20260509204529 55 0.0 0.0 0.00 0.00 0.00 77 1015.7
20260509203036 56 0.0 0.0 0.00 0.00 0.00 76 1015.7
20260509201528 56 0 0.0 0.0 0.00 0.00 0.00 72 1015.7
20260509200038 57 75 0.0 0.0 0.00 0.00 0.00 72 1015.5
20260509194545 58 0.0 0.0 0.00 0.00 0.00 68 1015.5
20260509193036 59 0.0 0.0 0.00 0.00 0.00 66 1015.5
20260509191532 60 143 0.0 0.0 0.00 0.00 0.00 65 1015.3
20260509190028 61 0.0 0.0 0.00 0.00 0.00 63 1015.3
20260509184532 62 0.0 0.0 0.00 0.00 0.00 61 1015.2
20260509183045 63 0.0 0.0 0.00 0.00 0.00 59 1015.2
20260509181529 64 0.0 0.0 0.00 0.00 0.00 57 1015.2
20260509180028 64 0.0 0.0 0.00 0.00 0.00 58 1015.1
20260509174543 65 0.0 0.0 0.00 0.00 0.00 57 1015.1
20260509173029 65 0.0 0.0 0.00 0.00 0.00 55 1015.2
20260509171539 66 0.0 0.0 0.00 0.00 0.00 53 1015.0
20260509170033 67 0.0 0.0 0.00 0.00 0.00 53 1015.0
20260509164529 67 0.0 0.0 0.00 0.00 0.00 54 1015.2
20260509163042 66 0.0 0.0 0.00 0.00 0.00 53 1015.1
20260509161539 67 0.0 0.0 0.00 0.00 0.00 52 1015.2
20260509160110 67 0.0 0.0 0.00 0.00 0.00 54 1015.1
20260509154529 67 0.0 0.0 0.00 0.00 0.00 54 1015.1
20260509153043 68 0.0 0.0 0.00 0.00 0.00 54 1015.3
20260509151530 68 0.0 0.0 0.00 0.00 0.00 56 1015.5
20260509150038 68 0.0 0.0 0.00 0.00 0.00 53 1015.6
20260509144531 69 0.0 0.0 0.00 0.00 0.00 53 1015.5
20260509143034 69 315 2.6 3.5 0.00 0.00 0.00 52 1015.7
20260509141529 69 246 2.6 5.2 0.00 0.00 0.00 53 1015.8
20260509140034 69 0.0 0.0 0.00 0.00 0.00 54 1015.9
20260509134529 70 0.0 0.0 0.00 0.00 0.00 51 1016.0
20260509133028 70 96 0.9 0.0 0.00 0.00 0.00 49 1016.1
20260509131529 70 0.0 0.0 0.00 0.00 0.00 51 1016.3
20260509130028 69 116 3.5 0.0 0.00 0.00 0.00 55 1016.4
20260509124530 70 275 1.7 5.2 0.00 0.00 0.00 57 1016.4
20260509123028 69 0.0 0.0 0.00 0.00 0.00 56 1016.6
20260509121529 69 0.0 0.0 0.00 0.00 0.00 54 1016.8
20260509120033 69 122 2.6 0.0 0.00 0.00 0.00 56 1016.8
20260509114527 69 0.0 0.0 0.00 0.00 0.00 57 1017.0
20260509113028 69 0.0 0.0 0.00 0.00 0.00 54 1017.2
20260509111530 68 0.0 0.0 0.00 0.00 0.00 56 1017.3
20260509110027 67 0.0 0.0 0.00 0.00 0.00 58 1017.5
20260509104530 67 0.0 0.0 0.00 0.00 0.00 57 1017.6
20260509103029 67 0.0 0.0 0.00 0.00 0.00 60 1017.7
20260509101530 66 0.0 0.0 0.00 0.00 0.00 60 1017.6
20260509100029 66 281 0.9 0.0 0.00 0.00 0.00 60 1017.7
20260509094530 66 63 6.1 0.0 0.00 0.00 0.00 63 1017.7
20260509093039 66 0.0 0.0 0.00 0.00 0.00 62 1017.8
20260509091529 66 0.0 0.0 0.00 0.00 0.00 63 1017.8
20260509090030 64 0.0 0.0 0.00 0.00 0.00 66 1017.8
20260509084533 64 131 0.9 3.5 0.00 0.00 0.00 66 1017.7
20260509083031 63 148 0.9 5.2 0.00 0.00 0.00 68 1017.9
20260509081530 63 0.0 0.0 0.00 0.00 0.00 69 1018.0
20260509080031 62 0.0 0.0 0.00 0.00 0.00 68 1018.0
20260509074531 62 98 0.9 0.0 0.00 0.00 0.00 68 1017.9
20260509073028 61 0.0 0.0 0.00 0.00 0.00 69 1018.0
20260509071528 59 0.0 0.0 0.00 0.00 0.00 70 1018.1
20260509070028 59 208 0.9 3.5 0.00 0.00 0.00 70 1018.2
20260509064535 59 169 0.0 1.7 0.00 0.00 0.00 72 1018.1